Barcelona-Gracia (Barcelonés)





Hora UTC 06:35
Temperatura 24.9 ºC
Humitat 89.0 %
Pressió 1007.1 hPa
Pluja 0.0 mm
Velocitat vent 6.4 km/h
Direcció vent

Dades diàries 2024-07-21



Hora UTC (hivern +1h; estiu +2h)
Temperatura (ºC) Humitat (%) Pressió (hPa) Velocitat vent (km/h) Precipitació (mm)
Hora UTC Aire Humitat Pressió Vel. Dir. Vel. Max Dir. Intent. màx 5 min.
00:05 25.4 87.0 1004.8 8.0 8.0 0.0
00:15 25.3 87.0 1004.8 4.8 16.1 0.0
00:25 25.4 87.0 1004.9 6.4 16.1 0.0
00:35 25.4 85.0 1005.0 11.3 16.1 0.0
00:45 25.4 85.0 1004.9 1.6 16.1 0.0
00:55 25.4 84.0 1005.1 0.0 16.1 0.0
01:05 25.6 83.0 1004.9 0.0 16.1 0.0
01:15 25.6 83.0 1004.9 1.6 16.1 0.0
01:25 25.7 82.0 1004.8 0.0 16.1 0.0
01:35 25.7 82.0 1004.8 3.2 16.1 0.0
01:45 25.7 82.0 1004.8 3.2 16.1 0.0
01:55 25.7 82.0 1004.8 0.0 16.1 0.0
02:05 25.8 82.0 1004.7 0.0 16.1 0.0
02:15 25.7 82.0 1004.9 0.0 16.1 0.0
02:25 25.8 81.0 1004.8 0.0 16.1 0.0
02:35 25.8 81.0 1004.7 3.2 16.1 0.0
02:45 25.8 81.0 1004.7 0.0 16.1 0.0
02:55 25.7 81.0 1004.8 3.2 16.1 0.0
03:05 25.7 81.0 1004.8 4.8 16.1 0.0
03:15 25.6 81.0 1004.8 4.8 16.1 0.0
03:25 25.3 83.0 1004.8 6.4 16.1 0.0
03:35 25.1 85.0 1004.9 3.2 16.1 0.0
03:45 24.9 86.0 1005.0 3.2 16.1 0.0
03:55 24.8 86.0 1005.0 8.0 16.1 0.0
04:05 24.7 87.0 1005.2 1.6 16.1 0.0
04:15 24.6 87.0 1005.1 11.3 16.1 0.0
04:25 24.7 87.0 1005.3 6.4 17.7 0.0
04:35 24.8 85.0 1005.5 11.3 17.7 0.0
04:45 24.8 84.0 1005.6 12.9 19.3 0.0
04:55 24.8 87.0 1005.8 20.9 22.5 0.0
05:05 24.7 88.0 1005.9 11.3 22.5 0.0
05:15 24.8 87.0 1006.1 6.4 22.5 0.0
05:25 24.8 86.0 1006.2 16.1 27.4 0.0
05:35 24.8 87.0 1006.3 9.7 27.4 0.0
05:45 24.9 89.0 1006.4 16.1 27.4 0.0
05:55 24.9 90.0 1006.4 4.8 27.4 0.0
06:05 24.9 91.0 1006.5 8.0 27.4 0.0
06:15 25.0 91.0 1006.6 4.8 27.4 0.0
06:25 25.2 92.0 1006.7 4.8 27.4 0.0
06:35 24.9 89.0 1007.1 6.4 27.4 0.0
Màxima 25.8 92.0 1007.1 20.9 27.4 0.0
Mínima 20 81.0 1004.7
Total 0.0